Probability
0 0 0 0 0 0 0 0 0 0 0 0 0 0 0 0 0 0 0 0 0 0 0 0 0 0 0 0 0 0 0 0 0 0 0 0 0 0 0 0 0 0 0 0
0 0 0 0 0 0 0 0 0 0 0 0 0 0 0 0 0 0 0 0 0 0 0 0 0 0 0 0 0 0 0 0 0 0 0 0 0 0 0 0 0 0 0 0
0 0 0 0 0 0 0 0 0 0 0 0 0 0 0 0 0 0 0 0 0 0 0 0 0 0 0 0 0 0 0 0 0 0 0 0 0 0 0 0 0 0 0 0
0 0 0 0 0 0 0 0 0 0 0 0 0 0 0 0 0 0 0 0 0 0 0 0 0 0 0 0 0 0 0 0 0 0 0 0 0 0 0 0 0 0 0 0
0 0 0 0 0 0 0 0 0 0 0 0 0 0 0 0 0 0 0 0 0 0 0 0 0 0 0 0 0 0 0 0 0 0 0 0 0 0 0 0 0 0 0 0
0 0 0 0 0 0 0 0 0 0 0 0 0 0 0 0 0 0 0 0 0 0 0 0 0 0 0 0 0 0 0 0 0 0 0 0 0 0 0 0 0 0 0 0
0 0 0 0 0 0 0 0 0 0 0 0 0 0 0 0 0 0 0 0 0 0 0 0 0 0 0 0 0 0 0 0 0 0 0 0 0 0 0 0 0 0 0 0
0 0 0 0 0 0 0 0 0 0 0 0 0 0 0 0 0 0 0 0 0 0 0 0 0 0 0 0 0 0 0 0 0 0 0 0 0 0 0 0 0 0 0 0
0 0 0 0 0 0 0 0 0 0 0 0 0 0 0 0 0 0 0 0 0 0 0 0 0 0 0 0 0 0 0 0 0 0 0 0 0 0 0 0 0 0 0 0
0 0 0 0 0 0 0 0 0 0 0 0 0 0 0 0 0 0 0 0 0 0 0 0 0 0 0 0 0 0 0 0 0 0 0 0 0 0 0 0 0 0 0 0
0 0 0 0 0 0 0 0 0 0 0 0 0 0 0 0 0 0 0 0 0 0 0 0 0 0 0 0 0 0 0 0 0 0 0 0 0 0 0 0 0 0 0 0
0 0 0 0 0 0 0 0 0 0 0 0 0 0 0 0 0 0 0 0 0 0 0 0 0 0 0 0 0 0 0 0 0 0 0 0 0 0 0 0 0 0 0 0
0 0 0 0 0 0 0 0 0 0 0 0 0 0 0 0 0 0 0 0 0 0 0 0 0 0 0 0 0 0 0 0 0 0 0 0 0 0 0 0 0 0 0 0
0 0 0 0 0 0 0 0 0 0 0 0 0 0 0 0 0 0 0 0 0 0 0 0 0 0 0 0 0 0 0 0 0 0 0 0 0 0 0 0 0 0 0 0
0 0 0 0 0 0 0 0 0 0 0 0 0 0 0 0 0 0 0 0 0 0 0 0 0 0 0 0 0 0 0 0 0 0 0 0 0 0 0 0 0 0 0 0
0 0 0 0 0 0 0 0 0 0 0 0 0 0 0 0 0 0 0 0 0 0 0 0 0 0 0 0 0 0 0 0 0 0 0 0 0 0 0 0 0 0 0 0
0 0 0 0 0 0 0 0 0 0 0 0 0 0 0 0 0 0 0 0 0 0 0 0 0 0 0 0 0 0 0 0 0 0 0 0 0 0 0 0 0 0 0 0
0 0 0 0 0 0 0 0 0 0 0 0 0 0 0 0 0 0 0 0 0 0 0 0 0 0 0 0 0 0 0 0 0 0 0 0 0 0 0 0 0 0 0 0
0 0 0 0 0 0 0 0 0 0 0 0 0 0 0 0 0 0 0 0 0 0 0 0 0 0 0 0 0 0 0 0 0 0 0 0 0 0 0 0 0 0 0 0
0 0 0 0 0 0 0 0 0 0 0 0 0 0 0 0 0 0 0 0 0 0 0 0 0 0 0 0 0 0 0 0 0 0 0 0 0 0 0 0 0 0 0 0
0 0 0 0 0 0 0 0 0 0 0 0 0 0 0 0 0 0 0 0 0 0 0 0 0 0 0 0 0 0 0 0 0 0 0 0 0 0 0 0 0 0 0 0
0 0 0 0 0 0 0 0 0 0 0 0 0 0 0 0 0 0 0 0 0 0 0 0 0 0 0 0 0 0 0 0 0 0 0 0 0 0 0 0 0 0 0 0
0 0 0 0 0 0 0 0 0 0 0 0 0 0 0 0 0 0 0 0 0 0 0 0 0 0 0 0 0 0 0 0 0 0 0 0 0 0 0 0 0 0 0 0
0 0 0 0 0 0 0 0 0 0 0 0 0 0 0 0 0 0 0 0 0 0 0 0 0 0 0 0 0 0 0 0 0 0 0 0 0 0 0 0 0 0 0 0
0 0 0 0 0 0 0 0 0 0 0 0 0 0 0 0 0 0 0 0 0 0 0 0 0 0 0 0 0 0 0 0 0 0 0 0 0 0 0 0 0 0 0 0
0 0 0 0 0 0 0 0 0 0 0 0 0 0 0 0 0 0 0 0 0 0 0 0 0 0 0 0 0 0 0 0 0 0 0 0 0 0 0 0 0 0 0 0
Height
5711 5713 5712 5713 5714 5715 5717 5719 5721 5724 5725 5728 5731 5734 5737 5739 5742 5745 5747 5750 5753 5755 5757 5759 5761 5762 5764 5765 5766 5767 5768 5768 5769 5769 5769 5769 5768 5768 5767 5766 5766 5765 5764 5763
5710 5709 5708 5709 5710 5711 5713 5714 5716 5718 5719 5722 5724 5727 5729 5732 5735 5737 5740 5742 5745 5747 5749 5751 5753 5755 5756 5757 5758 5759 5760 5761 5761 5761 5761 5760 5760 5759 5758 5757 5756 5755 5755 5754
5707 5707 5705 5706 5707 5708 5709 5710 5712 5714 5715 5716 5718 5720 5723 5725 5727 5730 5732 5735 5737 5739 5742 5744 5746 5747 5748 5750 5750 5751 5752 5752 5752 5752 5752 5751 5751 5750 5749 5748 5747 5746 5745 5743
5706 5705 5704 5704 5704 5705 5706 5707 5708 5709 5710 5711 5713 5714 5717 5719 5721 5723 5725 5727 5730 5732 5734 5736 5738 5739 5741 5742 5742 5743 5743 5743 5743 5743 5743 5742 5742 5741 5740 5738 5737 5735 5734 5732
5705 5704 5703 5702 5702 5702 5703 5703 5704 5705 5706 5707 5708 5709 5712 5713 5715 5718 5719 5721 5723 5725 5727 5728 5730 5731 5733 5734 5734 5735 5735 5735 5735 5734 5734 5733 5733 5732 5730 5728 5727 5725 5723 5721
5704 5703 5702 5701 5700 5701 5701 5702 5702 5702 5703 5704 5705 5705 5706 5709 5711 5712 5714 5715 5717 5719 5720 5722 5723 5724 5725 5726 5726 5727 5727 5726 5726 5725 5725 5724 5723 5722 5720 5718 5716 5714 5712 5710
5703 5702 5701 5700 5700 5700 5700 5701 5701 5700 5700 5701 5702 5702 5704 5705 5706 5708 5709 5711 5712 5713 5714 5715 5716 5717 5718 5718 5718 5718 5718 5717 5716 5716 5715 5714 5713 5712 5710 5708 5706 5703 5701 5699
5702 5702 5700 5699 5699 5699 5699 5699 5700 5699 5698 5699 5699 5699 5702 5702 5703 5703 5705 5706 5707 5707 5708 5708 5709 5709 5710 5710 5710 5710 5709 5708 5707 5706 5705 5704 5703 5701 5700 5697 5695 5692 5690 5688
5702 5701 5700 5699 5698 5698 5697 5697 5697 5697 5696 5697 5697 5698 5699 5698 5699 5699 5700 5701 5702 5702 5702 5702 5702 5702 5702 5702 5702 5701 5701 5699 5698 5697 5696 5694 5693 5691 5689 5686 5684 5681 5679 5676
5701 5701 5700 5698 5698 5697 5697 5696 5696 5695 5694 5694 5695 5695 5696 5695 5695 5695 5695 5696 5696 5696 5696 5696 5695 5695 5695 5694 5693 5693 5692 5691 5689 5687 5686 5684 5682 5680 5678 5676 5673 5670 5667 5664
5701 5701 5700 5698 5697 5696 5695 5695 5694 5693 5693 5692 5692 5695 5692 5691 5691 5691 5690 5690 5690 5690 5689 5689 5688 5688 5687 5686 5685 5684 5682 5681 5679 5678 5676 5674 5671 5669 5667 5664 5662 5659 5655 5652
5701 5700 5699 5698 5696 5694 5693 5693 5692 5692 5691 5690 5689 5693 5689 5688 5687 5686 5686 5685 5685 5684 5683 5682 5682 5681 5680 5678 5677 5675 5673 5671 5670 5668 5666 5663 5661 5659 5656 5653 5650 5647 5644 5641
5700 5699 5698 5697 5697 5695 5692 5691 5690 5689 5688 5687 5686 5690 5686 5684 5683 5682 5681 5680 5680 5679 5678 5676 5675 5674 5673 5671 5669 5667 5665 5663 5660 5658 5656 5654 5651 5648 5646 5642 5639 5636 5633 5629
5700 5698 5698 5696 5694 5692 5691 5689 5688 5686 5685 5684 5684 5684 5683 5681 5679 5678 5677 5676 5675 5673 5672 5671 5669 5667 5666 5664 5662 5659 5657 5654 5651 5649 5647 5644 5641 5638 5635 5631 5628 5624 5621 5617
5698 5697 5695 5694 5692 5690 5689 5687 5685 5684 5682 5681 5681 5680 5679 5677 5675 5674 5672 5671 5669 5668 5666 5664 5662 5661 5658 5656 5654 5651 5648 5645 5642 5640 5637 5634 5631 5627 5624 5620 5616 5613 5609 5605
5696 5695 5693 5692 5690 5688 5686 5685 5683 5681 5679 5677 5676 5676 5675 5672 5671 5669 5667 5665 5664 5662 5660 5658 5656 5654 5651 5649 5646 5643 5640 5637 5634 5630 5627 5624 5620 5616 5613 5609 5605 5601 5597 5593
5693 5691 5690 5689 5687 5685 5684 5683 5680 5678 5676 5674 5672 5672 5669 5667 5665 5663 5662 5660 5658 5656 5653 5651 5648 5646 5644 5641 5638 5635 5631 5628 5625 5621 5617 5613 5609 5606 5602 5598 5594 5590 5586 5581
5690 5688 5686 5684 5684 5682 5683 5679 5676 5674 5672 5670 5668 5666 5663 5661 5659 5657 5655 5653 5651 5649 5646 5644 5641 5638 5635 5633 5629 5626 5623 5619 5615 5611 5607 5603 5599 5595 5591 5587 5583 5579 5574 5569
5685 5683 5681 5680 5678 5677 5677 5674 5671 5669 5668 5665 5662 5660 5658 5656 5654 5652 5649 5646 5644 5641 5639 5636 5633 5630 5627 5624 5621 5617 5614 5610 5606 5602 5598 5594 5589 5585 5581 5576 5572 5567 5562 5557
5679 5678 5677 5674 5672 5672 5673 5669 5665 5664 5662 5660 5657 5654 5652 5649 5648 5646 5642 5639 5636 5633 5630 5627 5625 5622 5619 5615 5612 5608 5605 5601 5597 5593 5589 5584 5579 5575 5570 5566 5561 5556 5551 5545
5673 5671 5670 5668 5665 5666 5666 5662 5659 5658 5657 5653 5650 5647 5645 5643 5640 5638 5634 5631 5628 5625 5622 5619 5616 5613 5609 5606 5603 5599 5596 5592 5587 5583 5579 5574 5569 5564 5559 5554 5549 5544 5539 5533
5665 5664 5663 5661 5659 5661 5657 5655 5653 5651 5648 5646 5643 5640 5638 5635 5632 5629 5626 5623 5619 5616 5613 5610 5607 5604 5600 5597 5594 5590 5586 5582 5578 5574 5569 5564 5559 5553 5548 5543 5537 5532 5526 5521
5658 5657 5655 5654 5655 5652 5649 5647 5645 5642 5640 5638 5636 5633 5630 5628 5625 5622 5618 5615 5611 5608 5604 5601 5598 5595 5591 5588 5584 5580 5576 5572 5568 5563 5558 5552 5547 5541 5536 5530 5525 5520 5514 5508
5650 5648 5646 5646 5646 5644 5641 5638 5636 5634 5632 5630 5628 5625 5623 5620 5617 5613 5610 5607 5603 5599 5596 5592 5589 5586 5582 5578 5574 5570 5566 5561 5557 5552 5546 5540 5535 5529 5524 5518 5513 5507 5502 5496
5642 5639 5637 5636 5637 5634 5632 5630 5628 5626 5624 5622 5619 5617 5614 5611 5608 5605 5602 5598 5594 5590 5587 5583 5580 5576 5572 5568 5564 5560 5555 5550 5545 5540 5534 5528 5522 5517 5512 5506 5500 5495 5489 5483
5633 5630 5628 5628 5627 5623 5623 5621 5619 5617 5615 5613 5610 5608 5605 5602 5599 5596 5593 5589 5585 5582 5578 5574 5570 5566 5562 5558 5554 5549 5544 5538 5533 5528 5522 5516 5510 5505 5500 5494 5489 5483 5477 5471
Wind_Speed
11 13 14 16 18 19 20 22 24 26 28 30 33 35 35 35 36 37 37 36 36 36 36 36 36 36 36 36 36 36 36 36 36 36 36 36 37 38 39 40 40 40 41 42
10 11 12 15 17 18 19 20 22 23 25 27 29 32 33 34 35 36 36 37 37 37 37 36 36 37 37 37 38 37 37 37 37 38 38 37 38 39 40 41 42 43 43 43
9 10 11 13 16 18 19 19 20 21 23 25 27 28 30 31 32 33 34 35 36 36 36 36 36 36 36 37 38 38 37 38 38 39 38 39 39 40 41 42 43 45 45 45
8 9 9 10 13 15 17 18 18 19 21 23 25 27 27 28 30 30 31 32 33 34 35 35 35 36 37 37 37 38 38 38 39 39 40 40 40 41 42 43 44 45 46 46
8 8 8 9 10 11 13 14 15 16 17 20 22 24 25 26 28 28 29 29 30 31 33 33 34 35 35 37 37 37 38 39 40 40 41 41 42 42 43 44 45 46 48 48
8 8 8 8 8 9 9 11 12 13 15 16 17 20 21 22 23 24 26 27 28 29 31 32 33 33 34 35 36 38 39 41 42 42 42 42 43 43 44 45 47 47 48 49
7 7 7 6 6 7 8 9 11 12 14 16 16 18 20 20 20 21 23 25 26 27 29 31 32 33 33 34 36 38 39 39 40 41 42 43 43 43 44 45 46 47 48 49
8 7 7 6 7 8 10 10 11 13 14 15 15 17 18 19 20 21 21 22 24 26 28 30 31 32 33 34 36 36 37 38 38 39 40 42 43 43 44 45 46 47 48 49
8 7 7 7 8 9 10 11 12 13 15 16 16 16 17 19 20 21 21 22 24 25 27 29 31 32 33 34 35 36 37 37 39 40 41 42 43 44 45 46 47 48 49 50
9 9 8 8 9 10 10 10 11 13 14 16 17 17 19 19 20 20 21 23 24 25 26 28 29 30 32 33 34 36 37 38 39 40 42 43 44 46 47 48 48 49 49 49
10 10 9 9 10 10 10 10 11 13 14 15 16 17 19 20 20 21 22 22 23 24 25 26 27 29 30 32 33 35 37 38 39 40 41 42 44 45 46 47 47 47 47 47
11 11 10 10 11 11 11 12 12 13 14 16 18 17 18 19 20 20 20 21 23 24 25 25 27 27 29 30 31 33 34 36 37 39 40 40 41 42 43 44 45 46 47 47
12 12 12 11 12 12 12 12 13 14 16 16 17 18 18 18 20 20 20 21 22 23 24 25 26 26 27 28 30 31 32 34 36 37 38 39 40 41 42 43 44 46 47 48
13 13 13 13 13 13 12 12 13 15 17 18 18 18 18 19 19 19 20 21 23 23 24 26 27 28 29 30 30 32 33 34 35 36 37 38 40 41 43 44 45 46 47 47
14 13 14 14 14 14 13 13 14 16 17 18 18 18 18 19 20 20 21 22 23 24 25 26 27 29 29 30 31 32 33 34 35 37 38 39 41 42 43 44 45 45 46 46
15 15 15 15 16 16 16 15 16 17 18 19 19 20 20 22 23 23 24 25 25 26 26 27 29 30 31 32 32 33 34 35 36 37 39 40 41 42 42 43 44 44 45 46
17 17 17 17 17 18 17 17 18 18 19 20 21 21 22 24 25 25 26 27 27 28 28 29 30 31 32 33 34 35 35 36 37 38 39 41 41 42 42 43 43 44 46 48
19 19 20 19 19 20 19 19 19 20 21 22 23 23 24 25 26 27 28 28 28 29 30 30 31 31 32 33 34 35 36 37 38 39 40 41 41 42 42 42 43 44 45 46
21 21 22 22 22 22 22 22 23 23 22 23 24 25 26 27 27 27 29 29 30 31 31 31 32 32 33 34 35 35 36 37 38 39 40 41 41 41 42 42 43 44 44 46
24 24 25 25 25 25 24 25 25 25 24 25 26 27 28 29 30 29 30 30 31 32 33 33 34 34 34 35 36 36 36 37 38 39 40 41 41 42 42 43 44 45 46 47
26 27 27 27 27 27 26 26 27 27 27 27 28 29 30 30 31 32 31 32 32 33 33 34 35 35 35 36 36 36 37 38 39 40 41 41 42 43 44 44 45 45 46 47
28 29 29 29 29 28 28 28 29 30 30 30 30 30 31 31 32 32 33 33 34 34 34 34 34 35 35 36 36 36 38 39 40 41 42 43 44 45 45 46 46 46 47 48
29 29 30 29 29 29 29 30 31 31 31 31 32 32 32 32 33 33 33 34 34 35 35 35 35 36 36 37 37 38 39 41 42 43 45 46 47 46 46 47 47 47 48 49
31 31 31 30 29 31 31 32 32 33 33 33 33 33 33 33 34 34 34 34 35 35 36 36 37 37 38 39 40 40 41 42 44 46 47 48 48 47 47 47 48 49 49 49
32 33 32 32 31 33 33 33 34 34 34 33 33 34 34 34 34 34 35 36 36 36 37 38 38 39 39 40 40 41 43 44 45 47 48 48 48 48 47 48 48 48 48 49
33 34 34 33 33 35 34 34 35 35 35 34 35 35 35 36 36 36 36 37 37 37 37 38 39 39 40 41 42 43 44 45 46 47 48 48 47 47 47 47 47 48 48 49
Wind_Direction
264 259 250 246 245 244 245 245 245 246 246 245 244 246 248 248 249 250 250 249 250 251 253 254 255 257 258 260 262 265 266 268 269 269 270 271 271 271 272 273 273 274 275 274
277 269 256 248 246 246 246 248 247 248 249 248 247 248 249 250 250 251 253 253 253 253 255 256 257 257 259 261 263 264 266 268 269 269 270 271 273 273 273 274 275 275 275 275
293 288 273 258 252 250 249 252 252 253 251 252 253 252 251 252 254 254 255 255 254 255 256 257 258 260 261 262 264 264 265 268 269 270 271 272 274 276 276 275 276 276 276 277
305 299 286 269 259 256 253 254 258 259 258 258 257 259 255 255 255 256 256 256 257 257 257 257 259 260 262 263 264 265 266 268 269 270 272 274 275 276 278 278 277 277 276 277
310 304 293 283 271 265 261 258 259 260 262 263 260 261 260 258 258 259 258 257 259 259 259 260 261 262 263 265 267 268 268 269 270 272 274 275 276 277 279 279 279 279 280 280
314 306 300 293 281 268 266 261 261 265 267 267 266 266 264 262 264 264 262 262 262 262 262 262 262 263 264 266 269 270 271 273 273 273 275 277 278 278 280 281 282 282 282 282
318 309 303 295 285 270 267 266 267 270 271 272 272 271 269 268 269 269 267 267 266 266 266 266 266 266 267 268 270 272 274 275 275 276 277 279 281 282 282 283 283 283 283 283
326 317 306 294 289 286 278 275 273 276 277 275 275 274 273 274 274 273 273 271 271 272 271 271 271 271 270 271 272 274 275 277 277 278 278 279 280 281 282 283 284 284 284 284
327 322 314 303 294 289 291 285 279 278 277 279 279 278 277 281 281 278 277 276 275 276 277 276 275 274 274 274 274 274 276 277 279 280 280 279 279 280 281 283 283 284 285 285
326 325 323 313 303 296 294 292 285 280 281 282 283 284 284 283 286 282 280 281 279 279 280 279 278 278 277 276 276 276 277 278 280 281 281 281 280 280 282 283 284 285 285 286
326 323 323 321 315 308 299 292 292 289 283 285 289 289 288 287 286 285 281 281 281 281 281 280 280 280 280 280 280 279 279 280 280 281 282 283 284 284 284 285 286 286 287 288
329 324 319 320 320 313 303 295 290 290 291 291 291 294 292 291 290 289 285 284 284 284 283 283 282 283 284 283 283 284 284 283 283 284 285 286 287 288 288 287 287 287 288 289
329 327 323 320 319 316 309 300 293 292 293 297 297 297 297 295 295 294 291 291 289 288 287 286 286 287 287 287 287 288 289 288 287 287 288 288 289 290 290 290 290 291 291 291
323 324 324 324 324 321 317 306 297 294 295 296 298 299 298 297 295 294 294 294 293 291 289 289 288 288 289 289 289 289 290 290 290 289 289 290 290 291 291 292 292 293 293 293
315 316 319 319 320 321 319 315 308 304 301 299 299 300 301 300 297 296 297 297 296 294 292 291 290 290 291 292 294 294 293 293 293 292 292 292 292 292 293 293 294 294 294 295
307 308 311 310 311 315 314 313 311 309 308 304 300 299 299 298 299 297 298 297 297 296 295 293 292 291 291 293 294 295 294 294 295 294 294 294 294 294 294 295 295 295 296 296
302 302 304 303 304 306 311 312 309 307 306 304 303 303 300 298 299 298 298 298 298 297 297 297 295 294 293 294 294 295 295 295 295 296 296 296 296 295 295 296 297 298 298 298
297 298 300 300 301 303 307 307 306 305 305 305 303 300 299 300 301 300 297 297 297 296 296 296 296 296 296 296 297 297 297 297 296 297 297 297 297 297 297 298 298 299 299 300
291 294 295 297 297 300 303 303 304 304 304 304 303 301 300 300 301 301 298 297 296 295 295 295 296 296 297 297 298 298 298 298 298 298 298 299 300 300 300 299 299 299 299 300
287 288 290 292 293 298 300 299 300 300 301 302 302 302 302 302 302 302 301 299 297 295 295 295 295 296 296 296 297 298 298 299 300 300 301 302 302 301 301 300 300 300 301 302
284 285 286 287 289 295 297 296 297 297 300 301 302 302 302 302 303 303 303 302 300 298 297 297 297 297 296 296 296 297 298 299 300 302 302 303 303 302 302 302 301 302 303 303
284 284 285 285 287 292 292 292 292 293 295 298 300 302 303 304 303 303 303 303 302 300 299 298 298 298 298 298 298 298 299 299 301 302 303 303 304 303 303 302 302 302 303 303
283 284 284 285 288 288 287 288 290 291 294 296 298 300 302 303 304 304 304 303 303 302 301 299 298 298 298 299 299 299 299 300 301 302 303 304 304 303 303 302 302 302 303 303
282 282 284 285 287 286 285 286 287 289 292 294 296 299 301 302 303 303 304 304 304 303 303 302 301 300 300 300 300 299 299 300 301 303 303 304 303 302 302 302 302 302 303 304
282 283 284 285 285 283 284 284 285 288 291 294 296 298 300 301 302 303 303 304 304 303 303 302 302 302 301 300 300 300 301 301 303 303 304 303 302 302 302 302 303 304 305 305
281 283 284 284 283 282 284 284 284 287 290 292 293 295 297 298 299 301 302 302 303 303 302 302 302 302 302 302 302 302 303 303 303 303 304 304 303 302 303 303 304 305 306 306